Location: Moscow
(55.7500°N, 37.5830°E)
Time: 20:04:30
(UTC+03:00)

A-11 Canister half - Pass Details

Date: 02 December 2021
Orbit: 1516 x 1684 km, 47.2° (Epoch: 20 January)

Event Time Altitude Azimuth Distance (km) Brightness Sun altitude
Rises 07:01:00 0° 196° (SSW) 4,766 11.6 -12.4°
Reaches altitude 10° 07:04:52 10° 183° (S) 3,812 11.3 -11.9°
Maximum altitude 07:11:55 23° 136° (SE) 2,949 11.4 -11.0°
Drops below altitude 10° 07:19:07 10° 89° (E) 3,914 12.3 -10.0°
Sets 07:23:08 0° 77° (ENE) 4,922 12.6 -9.5°
